Погода в Умыган

Россия / Иркутская область     54°45′02″N   100°13′50″E
темп.,
°C
ветер,
м/с
пор.,
м/с
влажн.,
%
обл.,
%
осадки,
мм/ч
давл.,
гПа
погр.,
м
9 декабря, чт
чт923:00−12сз4148460 0.0 1032754
02:00−13сз3118867 0.0 1034615
05:00−18з119858 0.0 10369
08:00−18зюз1198100 0.0 10379
11:00−15юз1191100 0.0 103795
14:00−12юз1387100 0.1 1036475
17:00−12юз1395100 0.4 1037342
20:00−13зсз2890100 0.5 1039576
10 декабря, пт
пт1023:00−17юз1297100 0.0 104040
02:00−13з41173100 0.0 10381136
05:00−11з51468100 0.0 10361520
08:00−11зюз51473100 0.1 10351531
11:00−10зюз51573100 0.1 10341550
14:00−9з61672100 0.3 10331875
17:00−10зсз61779100 0.1 10331849
20:00−11зсз61689100 0.8 10351824
11 декабря, сб
сб1123:00−12зсз61586100 0.4 10371527
02:00−13зсз51585100 0.5 10381392
05:00−13зсз51485100 0.1 10391276
08:00−13зсз41487100 0.2 10411131
11:00−13зсз31288100 0.1 10411057
14:00−11з3782100 0.1 1039647
17:00−11ююз2589100 0.0 1038130
20:00−10ююз3890100 0.1 1036273
12 декабря, вс
вс1223:00−11ю2787100 0.0 1034163
02:00−11ю3886100 0.0 1030161
05:00−11ююв31082100 0.0 1026192
08:00−10ююв31080100 0.0 1022214
11:00−8ююз1388100 0.3 1019110
14:00−5юз0190100 0.8 1017101
17:00−6юз1197100 0.2 101719
20:00−7ююз1198100 0.4 101719
13 декабря, пн
пн1323:00−7сз1297100 0.7 101698
02:00−8ссз41088100 1.6 1017695
05:00−10сз41283100 0.1 1019870
08:00−12сз51382100 0.1 10211017
11:00−12зсз41287100 0.0 10231092
14:00−13зсз51382100 0.1 10251179
17:00−15сз41383100 0.0 10271026
20:00−17сз4128769 0.0 1030709